Location: Petruro
(41.0333°N, 14.7833°E)
Time: 15:58:41
(UTC+00:00)

CZ-4C R/B - Visible Passes

Search period start: 17 October 2021 00:00
Search period end: 27 October 2021 00:00
Orbit: 463 x 632 km, 98.0° (Epoch: 16 October)

Date Brightness Start Highest point End Pass type
(mag) Time Alt. Az. Time Alt. Az. Time Alt. Az.
19 Oct 6.7 16:47:04 10° NW 16:48:22 11° WNW 16:49:41 10° W visible
20 Oct 6.5 16:41:33 10° NW 16:43:28 13° WNW 16:45:25 10° W visible
21 Oct 6.4 16:36:12 10° NNW 16:38:33 15° WNW 16:40:56 10° W visible
